TimeEDT,TemperatureF,Dew PointF,Humidity,Sea Level PressureIn,VisibilityMPH,Wind Direction,Wind SpeedMPH,Gust SpeedMPH,PrecipitationIn,Events,Conditions,WindDirDegrees,DateUTC
12:15 AM,73.4,64.4,73,29.91,10.0,SW,4.6,-,N/A,,Clear,230,2013-05-24 04:15:00
12:35 AM,71.6,64.4,78,29.91,10.0,SW,4.6,-,N/A,,Clear,230,2013-05-24 04:35:00
12:55 AM,71.6,64.4,78,29.91,7.0,SW,5.8,-,N/A,,Clear,220,2013-05-24 04:55:00
1:15 AM,73.4,64.4,73,29.90,7.0,SW,8.1,-,N/A,,Clear,230,2013-05-24 05:15:00
1:35 AM,75.2,64.4,69,29.90,7.0,SW,8.1,-,N/A,,Clear,230,2013-05-24 05:35:00
1:55 AM,75.2,64.4,69,29.90,10.0,West,8.1,-,N/A,,Clear,260,2013-05-24 05:55:00
2:15 AM,73.4,62.6,69,29.90,7.0,West,9.2,-,N/A,,Scattered Clouds,260,2013-05-24 06:15:00
2:35 AM,73.4,62.6,69,29.90,10.0,West,10.4,-,N/A,,Clear,260,2013-05-24 06:35:00
2:55 AM,73.4,62.6,69,29.90,10.0,West,9.2,-,N/A,,Clear,270,2013-05-24 06:55:00
3:15 AM,73.4,62.6,69,29.90,7.0,West,6.9,-,N/A,,Clear,270,2013-05-24 07:15:00
3:35 AM,73.4,62.6,69,29.90,7.0,West,9.2,-,N/A,,Clear,280,2013-05-24 07:35:00
3:55 AM,71.6,62.6,73,29.90,7.0,West,8.1,-,N/A,,Clear,270,2013-05-24 07:55:00
4:15 AM,71.6,60.8,69,29.90,10.0,West,8.1,-,N/A,,Clear,280,2013-05-24 08:15:00
4:35 AM,71.6,60.8,69,29.90,10.0,WNW,8.1,-,N/A,,Clear,290,2013-05-24 08:35:00
4:55 AM,71.6,60.8,69,29.90,10.0,West,5.8,-,N/A,,Clear,280,2013-05-24 08:55:00
5:15 AM,71.6,60.8,69,29.91,10.0,WNW,8.1,-,N/A,,Clear,290,2013-05-24 09:15:00
5:35 AM,71.6,60.8,69,29.91,7.0,West,5.8,-,N/A,,Clear,280,2013-05-24 09:35:00
5:55 AM,71.6,60.8,69,29.92,7.0,WNW,5.8,-,N/A,,Clear,290,2013-05-24 09:55:00
6:15 AM,71.6,59.0,64,29.93,10.0,WNW,9.2,-,N/A,,Clear,290,2013-05-24 10:15:00
6:35 AM,69.8,60.8,73,29.94,7.0,WNW,4.6,-,N/A,,Clear,300,2013-05-24 10:35:00
6:55 AM,69.8,60.8,73,29.94,7.0,WNW,5.8,-,N/A,,Clear,290,2013-05-24 10:55:00
7:15 AM,71.6,60.8,69,29.95,7.0,West,5.8,-,N/A,,Clear,280,2013-05-24 11:15:00
7:35 AM,71.6,60.8,69,29.95,5.0,West,5.8,-,N/A,,Haze,280,2013-05-24 11:35:00
7:55 AM,71.6,60.8,69,29.96,7.0,WNW,9.2,-,N/A,,Clear,300,2013-05-24 11:55:00
8:15 AM,73.4,59.0,61,29.96,7.0,WNW,6.9,-,N/A,,Clear,300,2013-05-24 12:15:00
8:35 AM,73.4,59.0,61,29.96,7.0,NW,10.4,-,N/A,,Clear,310,2013-05-24 12:35:00
8:55 AM,73.4,59.0,61,29.96,7.0,West,8.1,-,N/A,,Clear,280,2013-05-24 12:55:00
9:15 AM,75.2,59.0,57,29.97,5.0,West,8.1,-,N/A,,Haze,280,2013-05-24 13:15:00
9:35 AM,77.0,59.0,54,29.97,7.0,NNW,11.5,-,N/A,,Clear,330,2013-05-24 13:35:00
9:55 AM,77.0,60.8,57,29.97,7.0,West,9.2,-,N/A,,Clear,280,2013-05-24 13:55:00
10:15 AM,77.0,60.8,57,29.98,7.0,West,10.4,-,N/A,,Clear,280,2013-05-24 14:15:00
10:35 AM,77.0,60.8,57,29.98,0.8,NW,8.1,-,N/A,,Haze,310,2013-05-24 14:35:00
10:55 AM,78.8,60.8,54,29.98,7.0,NNW,9.2,16.1,N/A,,Clear,330,2013-05-24 14:55:00
11:15 AM,77.0,60.8,57,29.99,7.0,NW,10.4,-,N/A,,Clear,320,2013-05-24 15:15:00
11:35 AM,78.8,60.8,54,29.99,10.0,NW,10.4,-,N/A,,Clear,310,2013-05-24 15:35:00
11:55 AM,78.8,59.0,51,30.00,7.0,NW,5.8,-,N/A,,Clear,320,2013-05-24 15:55:00
12:15 PM,80.6,59.0,48,29.99,7.0,NNW,10.4,-,N/A,,Scattered Clouds,340,2013-05-24 16:15:00
12:35 PM,82.4,59.0,45,30.00,7.0,WNW,13.8,19.6,N/A,,Scattered Clouds,300,2013-05-24 16:35:00
12:55 PM,80.6,59.0,48,30.00,7.0,WNW,10.4,20.7,N/A,,Scattered Clouds,300,2013-05-24 16:55:00
1:15 PM,82.4,59.0,45,30.00,5.0,WNW,17.3,23.0,N/A,,Haze,290,2013-05-24 17:15:00
1:35 PM,82.4,59.0,45,30.00,7.0,NNW,13.8,19.6,N/A,,Scattered Clouds,330,2013-05-24 17:35:00
1:55 PM,82.4,59.0,45,30.00,7.0,NW,16.1,19.6,N/A,,Scattered Clouds,310,2013-05-24 17:55:00
2:15 PM,82.4,59.0,45,30.00,7.0,NW,15.0,20.7,N/A,,Scattered Clouds,310,2013-05-24 18:15:00
2:35 PM,82.4,57.2,42,30.01,7.0,NW,15.0,23.0,N/A,,Scattered Clouds,310,2013-05-24 18:35:00
2:55 PM,82.4,59.0,45,30.01,7.0,NW,10.4,23.0,N/A,,Scattered Clouds,320,2013-05-24 18:55:00
3:15 PM,82.4,57.2,42,30.00,7.0,NW,12.7,23.0,N/A,,Scattered Clouds,310,2013-05-24 19:15:00
3:35 PM,82.4,57.2,42,30.00,7.0,NW,12.7,18.4,N/A,,Scattered Clouds,320,2013-05-24 19:35:00
3:55 PM,86.0,57.2,37,30.00,7.0,NNW,11.5,21.9,N/A,,Scattered Clouds,330,2013-05-24 19:55:00
4:15 PM,84.2,55.4,37,30.00,10.0,NNW,15.0,24.2,N/A,,Scattered Clouds,330,2013-05-24 20:15:00
4:35 PM,84.2,55.4,37,30.00,7.0,NW,13.8,21.9,N/A,,Scattered Clouds,320,2013-05-24 20:35:00
4:55 PM,84.2,55.4,37,30.01,7.0,NNW,15.0,18.4,N/A,,Clear,340,2013-05-24 20:55:00
5:15 PM,84.2,53.6,35,30.01,7.0,NNW,16.1,23.0,N/A,,Clear,330,2013-05-24 21:15:00
5:35 PM,86.0,55.4,35,30.01,7.0,NW,13.8,21.9,N/A,,Clear,320,2013-05-24 21:35:00
5:55 PM,84.2,53.6,35,30.01,7.0,NNW,13.8,-,N/A,,Clear,330,2013-05-24 21:55:00
6:15 PM,82.4,53.6,37,30.02,7.0,NNW,15.0,18.4,N/A,,Clear,330,2013-05-24 22:15:00
6:35 PM,82.4,51.8,35,30.02,7.0,NNW,15.0,20.7,N/A,,Clear,340,2013-05-24 22:35:00
6:55 PM,82.4,48.2,30,30.03,7.0,North,12.7,23.0,N/A,,Clear,350,2013-05-24 22:55:00
7:15 PM,80.6,50.0,34,30.04,10.0,NNW,10.4,17.3,N/A,,Clear,340,2013-05-24 23:15:00
7:35 PM,80.6,48.2,32,30.05,7.0,North,11.5,18.4,N/A,,Clear,350,2013-05-24 23:35:00
7:55 PM,78.8,46.4,32,30.06,7.0,North,9.2,-,N/A,,Clear,350,2013-05-24 23:55:00
8:15 PM,77.0,50.0,39,30.07,7.0,NNW,9.2,-,N/A,,Clear,340,2013-05-25 00:15:00
8:35 PM,77.0,50.0,39,30.08,10.0,North,10.4,-,N/A,,Clear,360,2013-05-25 00:35:00
8:55 PM,77.0,50.0,39,30.09,7.0,North,9.2,-,N/A,,Clear,360,2013-05-25 00:55:00
9:15 PM,75.2,48.2,38,30.09,7.0,North,11.5,-,N/A,,Clear,10,2013-05-25 01:15:00
9:35 PM,75.2,46.4,36,30.10,7.0,NNE,15.0,-,N/A,,Clear,20,2013-05-25 01:35:00
9:55 PM,73.4,48.2,41,30.11,10.0,NNE,11.5,-,N/A,,Clear,20,2013-05-25 01:55:00
10:15 PM,73.4,48.2,41,30.14,10.0,NNE,11.5,-,N/A,,Clear,20,2013-05-25 02:15:00
10:35 PM,71.6,46.4,41,30.14,10.0,North,15.0,-,N/A,,Clear,10,2013-05-25 02:35:00
10:55 PM,71.6,44.6,38,30.15,10.0,NNE,15.0,-,N/A,,Clear,20,2013-05-25 02:55:00
11:15 PM,71.6,46.4,41,30.16,10.0,North,13.8,-,N/A,,Clear,10,2013-05-25 03:15:00
11:35 PM,69.8,46.4,43,30.16,10.0,North,12.7,-,N/A,,Clear,10,2013-05-25 03:35:00
11:55 PM,68.0,50.0,52,30.16,7.0,NNE,13.8,18.4,N/A,,Clear,20,2013-05-25 03:55:00